Flag for U.S.A. Weather past 2 weeks in Galveston, Texas, U.S.A.

Now
70 °F

Clear.


Feels Like: 64 °F
Forecast: 69 / 74 °F
Wind: 10 mph from South

Location: Scholes Field

Current Time: Mar 31, 2015 at 10:36:24 PM

Latest Report: Mar 31, 2015 at 9:52 PM


Visibility: 10 mi

Pressure: 30.01 "Hg

Humidity: 97%

Dew point: 69 °F

Location of GalvestonLocation

Historic Weather in Galveston — Graph

°F

Galveston temperature yesterday

Maximum temperature yesterday: 75 °F (at 1:52 PM)
Minimum temperature yesterday: 66 °F (at 6:52 AM)
Average temperature yesterday: 70 °F

Past Weeks' High & Low Weather Summary

 TemperatureHumidityPressure
High76 °F (Mar 27, 5:52 PM)100% (Mar 17, 3:52 AM)30.24 "Hg (Mar 17, 3:52 AM)
Low55 °F (Mar 27, 6:52 AM)33% (Mar 27, 5:52 PM)29.86 "Hg (Mar 26, 4:52 AM)
Average67 °F88%30.06 "Hg
* Reported Mar 16 8:52 PM — Mar 31 8:52 PM, Galveston, Weather by CustomWeather, © 2015

Note: Actual official high and low records may vary slightly from our data, if they occured in-between our weather recording intervals... More about our weather records

Advertising

Galveston weather history for previous 24 hours

 ConditionsComfort  
Time TempWeatherWind HumidityBarometerVisibility
8:52 PM
Tue, Mar 31
70 °FPassing clouds.10 mph97%30.02 "Hg10 mi
7:52 PM70 °FSunny.12 mph97%30.01 "Hg10 mi
6:52 PM71 °FSunny.13 mph90%30.01 "Hg10 mi
5:52 PM72 °FSunny.15 mph87%30.01 "Hg10 mi
4:52 PM74 °FSunny.15 mph82%30.02 "Hg10 mi
3:52 PM75 °FSunny.15 mph82%30.04 "Hg10 mi
2:52 PM76 °FSunny.13 mph80%30.06 "Hg10 mi
1:52 PM76 °FPassing clouds.15 mph77%30.08 "Hg10 mi
12:52 PM75 °FScattered clouds.13 mph79%30.11 "Hg10 mi
11:52 AM75 °FScattered clouds.13 mph79%30.13 "Hg10 mi
10:52 AM74 °FSunny.13 mph82%30.13 "Hg10 mi
9:52 AM72 °FSunny.13 mph87%30.11 "Hg10 mi
8:52 AM70 °FSunny.8 mph93%30.10 "Hg10 mi
7:52 AM67 °FClear.6 mph100%30.09 "Hg10 mi
6:52 AM66 °FClear.5 mph100%30.08 "Hg10 mi
5:52 AM66 °FClear.6 mph100%30.07 "Hg10 mi
4:52 AM67 °FClear.8 mph97%30.06 "Hg10 mi
3:52 AM67 °FClear.9 mph97%30.07 "Hg10 mi
2:52 AM67 °FClear.9 mph97%30.09 "Hg10 mi
1:52 AM67 °FClear.8 mph100%30.11 "Hg10 mi
12:52 AM67 °FClear.9 mph100%30.13 "Hg10 mi
11:52 PM
Mon, Mar 30
68 °FClear.9 mph96%30.14 "Hg10 mi
10:52 PM68 °FClear.9 mph96%30.15 "Hg10 mi
Weather by CustomWeather, © 2015

See weather overviewHow to use our weather pages